If you wish to contribute or participate in the discussions about articles you are invited to join SKYbrary as a registered user

 Actions

Chapecó/Serafin Enoss Bertaso Airport

From SKYbrary Wiki

SBCH /
Revision as of 18:55, 20 November 2018 by Timo.Kouwenhoven (talk | contribs)
(diff) ← Older revision | Latest revision (diff) | Newer revision → (diff)
Airport
ICAO: SBCH – IATA: XAP
Summary
Name Chapecó/Serafin Enoss Bertaso Airport
Region South America and Caribbean
Territory Brazil BR.gif
Location Chapeco, Santa Caterina
Serving Chapeco
Elevation 654.101 m
2,146 ft654.101 m
Coordinates 27° 8' 2.68" S, 52° 39' 38.38" W
Runways
Designator Length Width Surface ROPS
11/29 2063 m6,768.373 ft
45 m147.638 ft
ASP /


METAR
Observation SBCH 070800Z 00000KT CAVOK 16/12 Q1015
Station CHAPECO
Date/Time 07 December 2019 08:00:00
Wind direction
Wind speed 00 kts
Lowest cloud amount clouds and visibility OK
Temperature 16°C
Dew point 12°C
Humidity 77%
QNH 1015 hPa
Weather condition n/a

Serafin Enoss Bertaso Airport serves the town of Chapecó, Brazil.

Climatology

Humid subtropical climate (Köppen climate classification Cfa)

Maps

Terrain

Loading map...

Airport Layout

Loading map...


Accidents & Serious Incidents at or in vicinity of SBCH

None on SKYbrary